Location: Buffign�court
(47.8126°N, 6.0176°E)
Time: 20:41:33
(UTC+00:00)

SL-14 R/B - Pass Details

Date: 16 June 2021
Orbit: 517 x 554 km, 82.4° (Epoch: 23 July)

Event Time Altitude Azimuth Distance (km) Brightness Sun altitude
Exits shadow 21:17:00 18° 158° (SSE) 1,377 4.7 -12.2°
Maximum altitude 21:19:38 44° 94° (E) 779 3.8 -12.4°
Drops below altitude 10° 21:23:29 10° 22° (NNE) 1,840 6.5 -12.8°
Sets 21:25:43 0° 16° (NNE) 2,735 7.6 -13.0°
